#timestamp,LO_Frequency,Hit,StdDev 
1513594815.0,286047004.3,N
1513594815.9,286047004.3,N
1513594835.8,286047003.0,N
1513594855.6,286047005.1,N
1513594875.4,286047006.0,N
1513594895.3,286046999.9,N
1513594915.1,286047000.5,N
1513594935.9,286046999.0,N
1513594955.7,286046999.6,N
1513594975.5,286046996.5,N
1513594995.4,286046995.0,N
1513595015.2,286046995.4,N
1513595035.0,286046997.8,N
1513595036.0,286046997.8,N
1513595055.8,286046996.9,N
1513595075.6,286047001.1,N
1513595095.5,286046999.8,N
1513595115.3,286046998.9,N
1513595135.1,286046998.0,N
1513595155.9,286046993.7,N
1513595175.7,286046993.5,N
1513595195.6,286046997.8,N
1513595215.4,286046995.1,N
1513595235.2,286046993.4,N
1513595255.1,286046991.7,N
1513595256.0,286046991.7,N
1513595275.8,286046994.2,N
1513595295.7,286046994.2,N
1513595315.5,286046992.2,N
1513595335.3,286046995.1,N
1513595355.2,286046999.2,N
1513595375.0,286046998.1,N
1513595375.9,286046998.1,N
1513595395.7,286046997.4,N
1513595415.6,286046994.9,N
1513595435.4,286046999.1,N
1513595455.3,286046999.1,N
1513595475.1,286046998.7,N
1513595476.0,286046998.7,N
1513595495.8,286046998.6,N
1513595515.7,286046996.6,N
1513595535.5,286046999.3,N
1513595555.4,286046997.5,N
1513595575.2,286046997.4,N
1513595595.0,286046995.0,N
1513595595.9,286046995.0,N
1513595615.8,286046996.2,N
1513595635.6,286046996.7,N
1513595655.4,286046997.0,N
1513595675.3,286046998.4,N
1513595695.1,286046999.6,N
1513595715.9,286046999.1,N
1513595735.7,286047001.1,N
1513595755.5,286047000.5,N
1513595775.4,286047000.7,N
1513595795.2,286047000.7,N
1513595815.1,286046998.4,N
1513595816.0,286046998.4,N
1513595835.8,286046997.5,N
1513595855.6,286046997.3,N
1513595875.5,286046997.0,N
1513595895.3,286046999.2,N
1513595915.1,286046998.7,N
1513595935.9,286046997.0,N
1513595955.7,286046998.2,N
1513595975.6,286047001.1,N
1513595995.4,286046999.7,N
1513596015.2,286046998.3,N
1513596035.1,286046997.9,N
1513596036.0,286046997.9,N
1513596055.8,286046998.7,N
1513596075.7,286046996.6,N
1513596095.5,286046993.4,Y
1513596115.3,286046996.4,P
1513596135.2,286046992.4,P
1513596155.0,286046990.1,P
1513596155.9,286046990.1,Y
1513596175.8,286046986.3,P
1513596195.6,286047004.1,N
1513596215.4,286047002.9,N
1513596235.3,286047004.9,N
1513596255.1,286047005.8,N
1513596275.8,286047006.3,N
1513596295.7,286047004.9,N
1513596315.5,286047003.6,N
1513596335.3,286047002.3,N
1513596355.2,286047000.0,N
1513596375.0,286047002.4,N
1513596375.9,286047002.4,N
1513596395.8,286047002.1,N
1513596415.6,286047004.4,N
1513596435.4,286047000.1,N
1513596455.3,286047001.9,N
1513596475.1,286047002.0,N
1513596495.9,286047003.5,N
1513596515.7,286047006.0,N
1513596535.5,286047005.8,N
1513596555.4,286047004.7,N
1513596575.2,286047004.4,N
1513596595.0,286047003.6,N
1513596595.9,286047003.6,N
1513596615.8,286047005.7,N
1513596635.6,286047005.5,N
1513596655.5,286047005.8,N
1513596675.3,286047003.4,N
1513596695.1,286047006.9,N
1513596715.9,286047007.3,N
1513596735.7,286047004.6,N
1513596755.6,286047006.0,Y
1513596775.4,286047000.5,P
1513596795.2,286047002.8,N
1513596815.1,286046998.1,N
1513596816.0,286046998.1,N
1513596835.8,286047000.9,N
1513596855.6,286046999.0,N
1513596875.5,286046998.8,N
1513596895.3,286046999.2,N
1513596915.2,286046999.6,N
1513596935.9,286047000.9,N
1513596955.7,286047002.4,N
1513596975.6,286047003.9,N
1513596995.4,286047004.2,N
1513597015.3,286047005.7,N
1513597035.1,286047005.7,N
1513597036.0,286047005.7,N
1513597055.8,286047000.1,N
1513597075.7,286046998.6,N
1513597095.5,286046997.8,N
1513597115.3,286046996.6,N
1513597135.2,286046998.2,N
1513597155.0,286046998.2,N
1513597155.9,286046998.2,N
1513597175.8,286047002.4,N
1513597195.6,286047002.6,N
1513597215.4,286047001.4,N
1513597235.3,286047002.3,N
1513597255.1,286046999.8,N
1513597275.9,286046999.1,N
1513597295.7,286047001.1,N
1513597315.5,286047001.6,N
1513597335.4,286047003.7,N
1513597355.2,286047002.2,N
1513597375.0,286047002.3,N
1513597376.0,286047002.3,N
1513597395.8,286046999.7,N
1513597415.6,286047002.2,N
1513597435.5,286047002.8,N
1513597455.3,286047002.5,N
1513597475.1,286047003.3,N
1513597495.9,286047003.2,N
1513597515.7,286047004.7,N
1513597535.6,286047002.6,N
1513597555.4,286046998.3,N
1513597575.2,286046996.7,N
1513597595.1,286046999.2,N
1513597596.0,286046999.2,N
1513597615.8,286046996.5,N
1513597635.7,286046997.8,N
1513597655.5,286046997.8,N
1513597675.3,286046998.1,N
1513597695.2,286046996.8,N
1513597715.0,286046996.8,N
1513597715.9,286046996.8,N
1513597735.8,286046995.6,N
1513597755.6,286046995.8,N
1513597775.4,286047000.4,N
1513597795.3,286047000.1,N
1513597815.1,286047002.1,N
1513597835.8,286047000.4,N
1513597855.7,286047000.0,N
1513597875.5,286046997.0,N
1513597895.4,286046999.0,N
1513597915.2,286047000.9,N
1513597935.0,286047000.4,N
1513597935.9,286047000.4,N
1513597955.8,286047000.2,N
1513597975.6,286046999.8,N
1513597995.5,286046999.9,N
1513598015.3,286047002.6,N
1513598035.1,286047003.4,N
1513598055.9,286047003.2,N
1513598075.7,286047002.1,N
1513598095.5,286047004.4,N
1513598115.4,286047002.5,N
1513598135.2,286047001.5,N
1513598155.1,286047003.4,N
1513598156.0,286047003.4,N
1513598175.8,286047002.7,N
1513598195.6,286046999.8,N
1513598215.5,286046999.8,N
1513598235.3,286047004.2,N
1513598255.2,286047003.3,N
1513598275.9,286047003.5,N
1513598295.7,286047003.5,N
1513598315.6,286047005.5,N
1513598335.4,286047003.0,N
1513598355.2,286047003.4,N
1513598375.1,286047001.6,N
1513598376.0,286047001.6,N
1513598395.8,286047003.7,N
